Regional Weather Roundup
Issued by NWS

Home | Current Version | Previous Version | Graphics & Text | Print | Product List | Glossary Off
Versions: 1 2 3 4 5 6 7 8 9 10 11 12 13 14 15 16 17 18 19 20 21 22 23 24 25 26 27 28 29 30 31 32 33 34 35 36 37 38 39 40 41 42 43 44 45 46 47 48 49 50

000
ASUS43 KTOP 261008
RWRKS

WEATHER ROUNDUP FOR KANSAS
NATIONAL WEATHER SERVICE GOODLAND KS
500 AM CDT SAT JUL 26 2014

NOTE:  "FAIR" INDICATES FEW OR NO CLOUDS BELOW 12,000 FEET WITH NO
SIGNIFICANT WEATHER AND/OR OBSTRUCTIONS TO VISIBILITY.

KSZ001>006-013>018-027>032-041>047-261100-
NORTHWEST KANSAS

CITY           SKY/WX    TMP DP  RH WIND       PRES   REMARKS
GOODLAND       MOCLDY    68  63  84 VRB3      29.96R
HAYS           CLOUDY    75  66  73 W6        29.81F
HILL CITY      CLOUDY    74  67  78 W6        29.81F
RUSSELL        CLOUDY    77  66  68 SE6       29.81F
$$

KSZ061>065-074>080-084>089-261100-
SOUTHWEST KANSAS

CITY           SKY/WX    TMP DP  RH WIND       PRES   REMARKS
DODGE CITY     CLOUDY    78  58  49 S10       29.88F
ELKHART          N/A     76  58  53 W7          N/A
GARDEN CITY    CLOUDY    71  65  81 NW8       29.90R
GREAT BEND     CLOUDY    75  61  60 SE5       29.83F
LIBERAL        CLOUDY    79  52  38 SW5       29.94F
PRATT          CLOUDY    79  54  41 SW14      29.87F
$$

KSZ066>073-081>083-090>101-261100-
SOUTHEAST KANSAS

CITY           SKY/WX    TMP DP  RH WIND       PRES   REMARKS
CHANUTE        PTCLDY    76  72  87 S10       29.87S
COFFEYVILLE    PTCLDY    76  72  87 S10       29.88R
HUTCHINSON     MOCLDY    79  61  53 S9        29.84F
MEDICINE LODGE   N/A     77  59  53 S8        29.86F
NEWTON         MOCLDY    79  61  53 SW17      29.88F
PARSONS        PTCLDY    76  71  85 S9        29.89S
WICHITA INTL   MOCLDY    75  65  70 S9        29.86S
WICHITA JABRA  MOCLDY    80  65  59 S16G25    29.85F
WICHITA MCCONL MOCLDY    76  66  70 S13       29.86F
WINFIELD       CLEAR     77  68  73 SW9       29.89R
$$

KSZ007>012-019>026-033>040-048>060-102>105-261100-
NORTHEAST KANSAS

CITY           SKY/WX    TMP DP  RH WIND       PRES   REMARKS
CONCORDIA      CLOUDY    75  65  70 CALM      29.76F
EMPORIA        MOCLDY    81  66  60 SW15      29.83F
LAWRENCE       PTCLDY    82  69  64 SW6       29.80S
MANHATTAN      MOCLDY    84  64  50 SW14      29.77S
MARYSVILLE     CLOUDY    73  68  83 CALM      29.78F
OLATHE IND     CLEAR     79  71  76 S15       29.83S
OLATHE EXE     CLEAR     80  70  71 SW14G25   29.82S
SALINA         CLOUDY    83  59  44 SW13      29.81R
TOPEKA BILLARD MOCLDY    84  69  60 SW6G18    29.79S
TOPEKA FORBES  MOCLDY    81  68  64 S13G22    29.79F
$$



USA.gov is the U.S. government's official web portal to all federal, state and local government web resources and services.